Location: Oberkirch
(48.5323°N, 8.0787°E)
Time: 18:18:59
(UTC+00:00)

PAYLOAD A - Pass Details

Date: 08 November 2025
Orbit: 690 x 828 km, 98.6° (Epoch: 10 December)

Event Time Altitude Azimuth Distance (km) Brightness Sun altitude
Rises 04:08:05 0° 12° (NNE) 3,383 7.5 -22.8°
Reaches altitude 10° 04:10:28 10° 10° (N) 2,443 6.7 -22.4°
Maximum altitude 04:15:52 68° 289° (WNW) 886 4.0 -21.5°
Enters shadow 04:20:30 13° 208° (SSW) 2,148 6.1 -20.8°
